Погода в Артигасе

Уругвай     30°24′29″S   56°28′12″W
темп.,
°C
ветер,
м/с
пор.,
м/с
влажн.,
%
обл.,
%
осадки,
мм/ч
давл.,
гПа
погр.,
м
9 августа, вт
вт900:00+11вюв71388100 0.1 1024513
03:00+10юв61291100 0.6 1024426
06:00+9юв71293100 0.4 1024472
09:00+9юв61393100 0.8 1026601
12:00+10юв61288100 0.1 1027646
15:00+12юв81181100 0.2 10251185
18:00+11ююв6118095 0.2 1026506
21:00+8ююв411908 0.2 1028252
10 августа, ср
ср1000:00+7ююв411930 0.0 1029272
03:00+6юв512900 0.0 1028259
06:00+4юв411920 0.0 1027225
09:00+6юв510840 0.0 1028324
12:00+12вюв56650 0.0 1028725
15:00+14вюв455795 0.0 1025996
18:00+11в457718 0.0 102480
21:00+8в238644 0.0 102523
11 августа, чт
чт1100:00+7в349099 0.0 102559
03:00+6в349137 0.0 102457
06:00+6в34910 0.0 102453
09:00+9всв46870 0.0 1026202
12:00+15св56670 0.0 1025811
15:00+16ссв45635 0.0 10221131
18:00+13св34820 0.0 102162
21:00+10всв489161 0.0 1021128
12 августа, пт
пт1200:00+9всв4129421 0.0 1021238
03:00+9всв41094100 0.0 1020203
06:00+8всв4994100 0.0 1019169
09:00+11св41188100 0.0 1019273
12:00+17ссв6973100 0.0 1018638
15:00+18ссв6869100 0.0 1016955
18:00+15св3685100 0.0 1015103
21:00+13всв3391100 0.0 101731
13 августа, сб
сб1300:00+12св3592100 0.0 101789
03:00+12всв2291100 0.0 101622
06:00+11в2292100 0.0 101619
09:00+14всв348799 0.0 1018127
12:00+20всв44705 0.0 1017560
15:00+22всв34650 0.0 1015872
18:00+18в47840 0.0 1014115
21:00+15в411920 0.0 1015186